Hourly Data Report for June 17, 2021

MIRAMICHI RCS
NEW BRUNSWICK
Current Station Operator: ECCC - MSC

47°00'34.000" N
65°27'54.000" W
33.00 m
8100989
71744
ACQ

Download Data

Hourly Data (June 2021)
Hourly Data Report for June 17, 2021
TIME
LST
Temp Definition
°C
Dew Point Definition
°C
Rel Hum Definition
%
Precip. Amount Definition
mm

Wind Dir Definition
10's deg

Wind Spd Definition
km/h
Visibility Definition
km
Stn Press Definition
kPa
Hmdx Definition


Wind Chill Definition


Weather Definition


00:00 11.6 8.1 79 LegendMM 26 9   99.97     LegendNANA
01:00 10.3 8.0 86 LegendMM 25 8   99.98     LegendNANA
02:00 9.1 7.5 90 LegendMM 22 7   100.00     LegendNANA
03:00 9.3 7.7 90 LegendMM 24 10   99.99     LegendNANA
04:00 8.4 7.2 92 LegendMM 22 10   100.01     LegendNANA
05:00 8.9 7.3 90 LegendMM 24 15   100.05     LegendNANA
06:00 10.2 7.4 83 LegendMM 25 13   100.08     LegendNANA
07:00 11.4 7.6 78 LegendMM 23 15   100.08     LegendNANA
08:00 13.2 7.8 70 LegendMM 23 16   100.10     LegendNANA
09:00 14.5 7.8 64 LegendMM 24 20   100.07     LegendNANA
10:00 16.0 8.6 61 LegendMM 23 22   100.09     LegendNANA
11:00 15.3 7.9 61 LegendMM 25 17   100.16     LegendNANA
12:00 16.3 8.7 61 LegendMM 23 29   100.18     LegendNANA
13:00 17.2 8.8 58 LegendMM 24 24   100.19     LegendNANA
14:00 16.6 9.8 64 LegendMM 23 20   100.21     LegendNANA
15:00 18.1 11.0 63 LegendMM 23 25   100.21     LegendNANA
16:00 18.7 11.4 62 LegendMM 23 21   100.22     LegendNANA
17:00 19.7 10.7 56 LegendMM 23 21   100.26     LegendNANA
18:00 18.3 10.9 62 LegendMM 23 19   100.31     LegendNANA
19:00 18.2 8.9 55 LegendMM 26 17   100.40     LegendNANA
20:00 16.9 9.0 59 LegendMM 25 12   100.48     LegendNANA
21:00 14.3 10.1 76 LegendMM 23 11   100.56     LegendNANA
22:00 13.4 10.0 80 LegendMM 23 11   100.61     LegendNANA
23:00 13.6 9.9 78 LegendMM 24 13   100.64     LegendNANA

Notes on Data Quality.

Legend

  • E = Estimated
  • M = Missing
  • NA = Not Available*
  • [empty] = Indicates an unobserved value
Date modified: